Tuxtla Gutierrez, Mexico

6:48 PM CDT on July 22, 2017 (GMT -0500)
Francisco Sarabia

Weather History for MMTG - April, 2013

Change the Weather History Date:

Thursday, April 11, 2013

  Actual Average Record
Temperature  
Mean Temperature 82 °F -  
Max Temperature 103 °F 81 °F 104 °F (2016)
Min Temperature 62 °F 62 °F 55 °F (2003)
Cooling Degree Days 18    
Growing Degree Days 32 (Base 50)    
Moisture  
Dew Point 56 °F    
Average Humidity 42    
Maximum Humidity 86    
Minimum Humidity 16    
Precipitation  
Precipitation 0.00 in - - ()
Sea Level Pressure  
Sea Level Pressure 29.76 in    
Wind  
Wind Speed 3 mph ()    
Max Wind Speed 16 mph    
Max Gust Speed 18 mph    
Visibility 7.6 miles    
Events      
Averages and records for this station are not official NWS values.
T = Trace of Precipitation, MM = Missing Value Source: Averaged Metar Reports

Daily Weather History Graph

Daily Weather History Graph

Search for Another Location

Airport or City:

Trip Planner

Search our weather history database for the weather conditions in past years. The results will help you decide how hot, cold, wet, or windy it might be!

Date:

Astronomy

Apr. 11, 2013 Rise Set
Actual Time 6:59 AM CDT 7:27 PM CDT
Civil Twilight 6:37 AM CDT 7:49 PM CDT
Nautical Twilight 6:12 AM CDT 8:14 PM CDT
Astronomical Twilight 5:46 AM CDT 8:40 PM CDT
Moon 7:44 AM CDT (4/11) 8:45 PM CDT (4/11)
Length of Visible Light 13h 11m
Length of Day
12h 27m
New Moon, 2% of the Moon is Illuminated
Apr 11
New Moon
Apr 18
First Quarter
Apr 25
Full
May 2
Last Quarter
May 9
New

Hourly Weather History & Observations

Time (CDT) Temp. Heat Index Dew Point Humidity Pressure Visibility Wind Dir Wind Speed Gust Speed Precip Events Conditions
12:40 AM 76 °F - 68 °F 69% 29.78 in 9 mi WSW 2.2 mph - -  
3:35 AM 72 °F - 69 °F 85% 29.73 in 9 mi Calm Calm - -  
6:00 AM 62.6 °F - 57.2 °F 82% 29.85 in 7.0 mi Calm Calm - N/A   Clear
6:35 AM 69 °F - 66 °F 86% 29.78 in 9 mi Calm Calm - -   Clear
6:44 AM 62.6 °F - 57.2 °F 82% 29.75 in 7.0 mi Calm Calm - N/A   Clear
7:51 AM 68.0 °F - 59.0 °F 73% 29.87 in 7.0 mi Calm Calm - N/A   Clear
8:50 AM 73.4 °F - 59.0 °F 61% 29.89 in 7.0 mi Calm Calm - N/A   Clear
9:38 AM 82 °F - 62 °F 41% 29.81 in 9 mi East 2.2 mph - -   Clear
9:44 AM 80.6 °F 81.1 °F 59.0 °F 48% 29.78 in 7.0 mi Calm Calm - N/A   Clear
10:41 AM 87.8 °F 86.1 °F 55.4 °F 33% 29.87 in 7.0 mi ESE 6.9 mph - N/A   Clear
11:46 AM 89.6 °F 87.7 °F 55.4 °F 31% 29.85 in 5.0 mi East 8.1 mph - N/A   Clear
12:40 PM 96 °F - 65 °F 26% 29.75 in 9 mi SSW 2.2 mph - -   Clear
12:45 PM 95.0 °F - 51.8 °F 23% 29.71 in 6.0 mi SW 8.1 mph - N/A   Clear
1:49 PM 96.8 °F - 46.4 °F 18% 29.78 in 6.0 mi South 5.8 mph - N/A   Clear
2:44 PM 98.6 °F - 48.2 °F 18% 29.74 in 6.0 mi SSE 13.8 mph - N/A   Clear
3:38 PM 101 °F - 67 °F 24% 29.61 in 9 mi West 2.2 mph - -  
3:42 PM 100.4 °F - 48.2 °F 17% 29.59 in 6.0 mi South 9.2 mph - N/A   Clear
4:49 PM 98.6 °F - 50.0 °F 19% 29.69 in 6.0 mi SSE 16.1 mph - N/A   Clear
5:47 PM 96.8 °F - 50.0 °F 20% 29.70 in 8.0 mi WNW 6.9 mph 18.4 mph N/A   Clear
6:38 PM 92 °F - 58 °F 22% 29.61 in 9 mi West 2.2 mph - -   Scattered Clouds
6:46 PM 93.2 °F - 41.0 °F 16% 29.62 in 8.0 mi NNW 13.8 mph - N/A   Clear
7:49 PM 89.6 °F - 39.2 °F 17% 29.77 in 8.0 mi NW 9.2 mph - N/A   Clear
8:47 PM 82.4 °F - 41.0 °F 23% 29.82 in 8.0 mi NNW 8.1 mph - N/A   Clear
9:40 PM 79 °F - 69 °F 63% 29.73 in 9 mi NW 2.2 mph - -  
9:50 PM 80.6 °F - 46.4 °F 30% 29.75 in 8.0 mi Calm Calm - N/A   Clear
10:52 PM 78.8 °F - 57.2 °F 47% 29.88 in 8.0 mi NW 8.1 mph - N/A   Clear
11:47 PM 77.0 °F - 62.6 °F 61% 29.90 in 8.0 mi NW 11.5 mph - N/A   Clear